Regional Weather Roundup
Issued by NWS

Home | Current Version | Previous Version | Text Only | Print | Product List | Glossary On
Versions: 1 2 3 4 5 6 7 8 9 10 11 12 13 14 15 16 17 18 19 20 21 22 23 24 25 26 27 28 29 30 31 32 33 34 35 36 37 38 39 40 41 42 43 44 45 46 47 48 49 50
000
ASUS42 KTBW 261510
RWRFL
FLORIDA REGIONAL WEATHER ROUNDUP
NATIONAL WEATHER SERVICE TAMPA BAY RUSKIN FL
1100 AM EDT SAT JUL 26 2014

NOTE: "FAIR" INDICATES FEW OR NO CLOUDS BELOW 12,000 FEET WITH NO
SIGNIFICANT WEATHER AND/OR OBSTRUCTIONS TO VISIBILITY.


FLZ001>010-012>015-112-114-115-261600-
PANHANDLE FLORIDA

CITY           SKY/WX    TMP DP  RH WIND       PRES   REMARKS
PENSACOLA      PTSUNNY   83  76  79 W7        30.08S
PENSACOLA NAS  PTSUNNY   85  77  77 VRB6      30.08R HX  95
MILTON NAS     MOSUNNY   84  74  71 W3        30.09R
CRESTVIEW      CLOUDY    83  75  77 NW3       30.10R
DUKE FIELD     FAIR      85  78  80 N5        30.08S HX  96
VALPARAISO     PTSUNNY   87  33  14 VRB2      30.07F
TRI COUNTY     FAIR      85  75  72 CALM      30.09R
PANAMA CITY    CLOUDY    83  75  77 SW7       30.08R
TYNDALL AFB    MOSUNNY   86  76  71 W8        30.10R HX  95
APALACHICOLA   SUNNY     86  77  74 SW9       30.09R HX  97

STATION/POSITION SKY/WX   TEMP    WIND        PRES    WAVE   SWELL
                          AIR SEA DIR/SP/G            HT/PER HT/PER
                          (F)     (DEG/KT/KT) (MB)    (FT/S) (FT/S)
30.1N   87.6W              83 84  290/ 10/ 12 1018.9R   2/ 4
29.2N   88.2W              83 85  280/  8/  8 1019.6
28.8N   86.0W              84 85  280/ 10/ 12 1019.4R   2/ 4
PANAMA CITY BEAC           82 83  270/  7/  8 1018.7S
CAPE SAN BLAS    NOT AVBL
TOWER C                    83     280/ 11/ 11 1019.2R
28.5N   84.5W              84 85  280/  8/ 10 1019.5R   2/ 4   2/ 4

$$
FLZ011-016>038-118-127-128-134-139-239-261600-
NORTH FLORIDA

CITY           SKY/WX    TMP DP  RH WIND       PRES   REMARKS
MARIANNA       MOSUNNY   85  78  80 W5        30.07S HX  96
TALLAHASSEE    PTSUNNY   87  75  67 W9        30.08S HX  96
PERRY          PTSUNNY   84  73  70 W8        30.09S
CROSS CITY       N/A     87  76  69 W9        30.09S HX  97
GAINESVILLE    MOSUNNY   87  75  67 W15       30.09S HX  96
MAYPORT NAS    PTSUNNY   87  75  67 W6        30.07S HX  96
JACKSONVILLE   PTSUNNY   87  76  69 SW14      30.07S HX  97
JAX NAS        PTSUNNY   90  74  59 W9        30.08S HX  99
JAX CRAIG      MOSUNNY   87  74  64 SW10      30.07S HX  95
JAX CECIL      PTSUNNY   86  73  66 W7        30.08F
FERNANDINA BEA FAIR      88  73  62 SW10      30.06R HX  96
ST AUGUSTINE   MOSUNNY   89  73  59 W8        30.09S HX  97

STATION/POSITION SKY/WX   TEMP    WIND        PRES    WAVE   SWELL
                          AIR SEA DIR/SP/G            HT/PER HT/PER
                          (F)     (DEG/KT/KT) (MB)    (FT/S) (FT/S)
SHELL POINT      NOT AVBL
KEATON BEACH               84     270/  9/ 11 1019.1S
CEDAR KEY                  83     250/  5/  5 1019.8R
FERNANDINA                 84 85  250/  9/ 12 1017.7R
30.7N   81.3W                 84                N/A     2/ 4
MAYPORT                    84 84  270/  7/ 11   N/A
31.4N   80.9W              82 84  240/ 12/ 14 1017.6S   2/ 5   2/ 8
ST AUGUSTINE               86     250/  7/ 11 1019.5F

$$
FLZ040-043>046-052-053-057-058-063-144-261600-
INTERIOR CENTRAL FLORIDA

CITY           SKY/WX    TMP DP  RH WIND       PRES   REMARKS
OCALA          MOSUNNY   84  72  65 SW6       30.11S
LEESBURG       PTSUNNY   88  78  72 S7        30.11F HX 101
SANFORD        MOSUNNY   88  75  66 SW7       30.10  HX  97
ORLANDO EXEC   MOSUNNY   87  76  69 W8        30.11F HX  97
ORLANDO INTL   MOSUNNY   88  75  65 SW6       30.11F HX  97
KISSIMMEE      PTSUNNY   88  79  74 W8        30.12S HX 102
WINTER HAVEN   PTSUNNY   87  75  67 W3        30.13S HX  96
LAKELAND       PTSUNNY   88  75  66 W6        30.12S HX  97
BARTOW         PTSUNNY   84  73  70 VRB3      30.13S
OKEECHOBEE     SUNNY     86  75  70 MISG      30.12F HX  95

$$
FLZ041-047-054-059-064-141-147-261600-
EAST CENTRAL FLORIDA

CITY           SKY/WX    TMP DP  RH WIND       PRES   REMARKS
ORMOND BEACH   MOSUNNY   84  77  79 SW7       30.11R
DAYTONA BEACH  PTSUNNY   86  76  71 W8        30.10S HX  96
DELAND         MOSUNNY   86  75  70 MISG      30.11F HX  95
NEW SMYRNA BEA SUNNY     88  77  70 W7        30.11S HX 100
JFK SPACE CTR  SUNNY     87  81  84 W8        30.10F HX 104
TITUSVILLE     MOSUNNY   86  77  74 W9        30.11  HX  97
CAPE CANAVERAL SUNNY     87  76  69 VRB5      30.10S HX  97
PATRICK AFB    SUNNY     88  77  70 NW5       30.11S HX  99
MELBOURNE      SUNNY     88  76  67 W7        30.11S HX  99
VERO BEACH     SUNNY     87  77  72 W6        30.11S HX  99
FT PIERCE      SUNNY     89  75  63 W6        30.11S HX  99
STUART         PTSUNNY   86  75  70 SW8       30.12S HX  95

STATION/POSITION SKY/WX   TEMP    WIND        PRES    WAVE   SWELL
                          AIR SEA DIR/SP/G            HT/PER HT/PER
                          (F)     (DEG/KT/KT) (MB)    (FT/S) (FT/S)
28.5N   80.2W              82 84  250/  8/  8 1019.8R
28.9N   78.5W              83 84  220/ 12/ 14 1019.3S   2/ 8   2/ 8
TRIDENT PIER               87 87  230/  5/  6 1019.1R
28.4N   80.5W                 85                N/A     1/ 8
27.6N   80.2W                 84                N/A     1/ 8

$$
FLZ050-056-061-142-242-148-248-149-249-151-251-155-255-
160-260-261600-
WEST CENTRAL FLORIDA

CITY           SKY/WX    TMP DP  RH WIND       PRES   REMARKS
CRYSTAL RIVER  FAIR      82  70  65 SW5       30.10F
INVERNESS      PTSUNNY   81  68  65 N6        30.12R THUNDER
BROOKSVILLE    LGT RAIN  82  75  79 S3        30.12S
ZEPHYRHILLS    PTSUNNY   86  77  74 W7        30.12F HX  97
CLEARWATER     MOSUNNY   85  77  77 W7        30.11S HX  95
TAMPA INTL     MOSUNNY   87  76  69 SW8       30.12S HX  97
TAMPA EXEC     PTSUNNY   88  77  70 CALM      30.11F HX 100
PLANT CITY     MOSUNNY   90  77  66 W5        30.13S HX 102
MACDILL AFB    MOSUNNY   87  76  71 W7        30.12S HX  97
ST PETERSBURG  MOSUNNY   87  76  69 E5        30.10S HX  97
SARASOTA       SUNNY     89  75  63 W5        30.10R HX  99
VENICE         FAIR      84  75  74 W5        30.13R THUNDER

STATION/POSITION SKY/WX   TEMP    WIND        PRES    WAVE   SWELL
                          AIR SEA DIR/SP/G            HT/PER HT/PER
                          (F)     (DEG/KT/KT) (MB)    (FT/S) (FT/S)
CEDAR KEY                  83     250/  5/  5 1019.8R
28.5N   84.5W              84 85  280/  8/ 10 1019.5R   2/ 4   2/ 4
27.3N   84.3W                 87                N/A     1/10
CLEARWATER BEACH           86 89  270/  4/  7 1019.4R
MIDDLE TAMPA BAY           85     290/  4/  5 1019.9F
VENICE                     85 90  230/  3/  4 1019.6R

$$
FLZ066-069-070-075>078-162-262-165-265-261600-
SOUTHWEST FLORIDA AND KEYS

CITY           SKY/WX    TMP DP  RH WIND       PRES   REMARKS
PUNTA GORDA    PTSUNNY   90  74  59 CALM      30.14R HX  99
FT MYERS       SUNNY     89  73  59 CALM      30.11S HX  97
SOUTHWEST INTL MOSUNNY   87  73  62 CALM      30.11S
NAPLES         PTSUNNY   86  79  79 CALM      30.11R HX  99
MARATHON       SUNNY     90  75  61 VRB6      30.11R HX 100
KEY WEST NAS   MOSUNNY   90  75  61 SE12      30.10R HX 100
KEY WEST INTL  MOSUNNY   89  75  63 SE10      30.11R HX  99

STATION/POSITION SKY/WX   TEMP    WIND        PRES    WAVE   SWELL
                          AIR SEA DIR/SP/G            HT/PER HT/PER
                          (F)     (DEG/KT/KT) (MB)    (FT/S) (FT/S)
VENICE                     85 90  230/  3/  4 1019.6R
NAPLES                     85 92  240/  2/  3 1020.2R
DRY TORTUGAS               85     160/  9/ 10 1019.2R
SAND KEY                   85     140/  9/ 11 1019.4R
SOMBRERO KEY               86     140/ 11/ 13 1020.3R
LONG KEY                   86 88  140/  9/ 11 1020.0R
MOLASSES REEF              85 87  160/  7/  8 1019.8R

$$
FLZ067-068-071>074-168-172>174-261600-
SOUTHEAST FLORIDA

CITY           SKY/WX    TMP DP  RH WIND       PRES   REMARKS
W PALM BEACH   PTSUNNY   86  75  69 SW7       30.11R HX  95
FT LAUDER-EXEC RAIN      84  80  88 SE7       30.11R HX  97
FT LAUDERDALE  TSTM      81  75  82 E17       30.11R
POMPANO BEACH  MOSUNNY   89  77  67 SE7       30.10F HX 101
PEMBROKE PINES HVY RAIN  80  71  74 NW14      30.12S
OPA LOCKA      CLOUDY    87  77  72 SW5       30.12S HX  99
MIAMI          MOSUNNY   87  78  74 CALM      30.11S HX 100
WEST KENDALL   LGT RAIN  84  76  76 E9        30.12R
HOMESTEAD      SUNNY     88  75  65 SE8       30.11R HX  97

STATION/POSITION SKY/WX   TEMP    WIND        PRES    WAVE   SWELL
                          AIR SEA DIR/SP/G            HT/PER HT/PER
                          (F)     (DEG/KT/KT) (MB)    (FT/S) (FT/S)
PORT EVERGLADES            86      70/  4/  6 1019.6
VIRGINIA KEY               85 87  250/  3/  4   N/A
LAKE WORTH                 85 85              1019.4R
FOWEY ROCKS                87 85  170/  9/ 10 1020.2R
SETTLEMENT POINT           85     210/  9/ 10 1020.6R

$$



USA.gov is the U.S. government's official web portal to all federal, state and local government web resources and services.